www.pogodaiklimat.ru

Погода и климат >> Архив погоды >> Монголия >> Толбо


ПОГОДА в Толбо

  • Прогноз погоды в Толбо
  • Монитор погоды в Толбо

АРХИВ ПОГОДЫ в Толбо

Время (UTC), дата Ветер
(напр.,м/с)
 
Видим.   Явления Облачность Т
(С)
Тd
(С)
f
(%)
Тe
(С)
Тes
(С)
Комфортность P
(гПа)
Po
(гПа)
Тmin
(С)
Tmax
(С)
R
(мм)
R24
(мм)
S
(см)
18 18.06 штиль 0 20 км ясно +8.8 +1.5 60 +8 +8 1016.5 784.0
21 18.06 штиль 0 20 км ясно +7.0 0.0 61 +7 +7 1018.2 784.0
00 19.06 штиль 0 20 км ясно +8.7 +1.0 58 +8 +11 1017.7 784.9 +5.3
03 19.06 штиль 0 20 км 6/6 1000 м
[Cu med, cong]
+16.4 +2.3 39 +16 +23 1010.0 784.4
06 19.06 ЮЗ 4 20 км 6/6 1000 м
[Cu med, cong]
+18.3 -1.5 26 +18 +23 1007.9 784.0
09 19.06 ЮЗ 2 20 км 6/4 1000 м
[Cu med, cong Ci fib]
+19.6 -1.7 24 +20 +27 1006.3 783.7
12 19.06 ЮЗ 4 20 км 6/6 1000 м
[Cu med, cong]
+17.6 +1.9 35 +17 +18 1008.5 784.0 +20.0
15 19.06 З 5 20 км 4/0
[Ci fib]
+14.1 +2.0 44 +13 +13 1012.7 784.8
18 19.06 штиль 0 20 км 3/0
[Ci]
+10.8 +3.0 59 +10 +10 1015.6 784.8
21 19.06 штиль 0 20 км 6/5 1000 м
[Sc Ac lent]
+8.2 +3.8 74 +8 +8 1017.5 784.4
00 20.06 штиль 0 20 км 8/6 1000 м
[Sc Ac lent]
+10.1 +3.9 65 +10 +10 1015.8 784.4 +7.9
03 20.06 З 2 20 км в посл. час дождь 10/10 1000 м
[Sc]
+9.6 +4.0 68 +8 +8 1017.7 785.6
06 20.06 штиль 0 20 км слаб. дождь 10/10 1000 м
[Sc]
+10.3 +5.2 71 +10 +10 1018.5 786.7
09 20.06 штиль 0 10 км осадки на расстоянии 10/10 1000 м
[Sc]
+11.5 +5.9 68 +11 +11 1017.4 786.7
12 20.06 ЮВ 4 20 км {дождь} 9/9 1000 м
[Cu Sc]
+10.8 +5.4 69 +9 +9 1018.4 786.9 +12.9 0.3
15 20.06 штиль 0 20 км 8/8 1000 м
[Cu Sc]
+10.3 +6.1 75 +10 +10 1019.2 787.2
18 20.06 штиль 0 20 км 8/3 1000 м
[Sc Ac As]
+8.4 +6.2 86 +8 +8 1020.2 786.6
21 20.06 штиль 0 20 км 8/0
[Ac As]
+8.6 +5.8 83 +8 +8 1019.5 786.2
00 21.06 штиль 0 20 км 4/1 1000 м
[Cu hum Ac lent Ci fib]
+10.7 +6.3 74 +10 +12 1018.2 786.7 +6.9
03 21.06 штиль 0 20 км 5/3 1000 м
[Cu med, cong Ci fib]
+14.6 +2.4 44 +15 +25 1014.2 786.3
06 21.06 Ю 2 20 км 4/4 1000 м
[Cu med, cong]
+17.7 +3.5 39 +18 +29 1010.2 785.4
09 21.06 Ю 4 20 км 3/3 1000 м
[Cu med, cong]
+20.4 -0.3 25 +21 +26 комфорт 1006.5 784.3
12 21.06 ЮЗ 2 20 км 3/1 1000 м
[Cu med, cong Ci fib]
+18.7 +1.5 32 +19 +21 1007.9 784.3 +20.9
15 21.06 З 4 20 км 4/0
[Ci]
+14.9 +0.5 37 +14 +14 1012.3 785.1
18 21.06 ЮЗ 2 20 км 5/0
[Ci]
+11.8 +0.9 47 +11 +11 1015.5 785.4
21 21.06 штиль 0 20 км 3/0
[Ac lent Ci]
+10.0 -0.4 48 +10 +10 1016.3 784.8
00 22.06 штиль 0 20 км ясно +10.1 0.0 49 +10 +13 1017.2 785.5 +6.4
03 22.06 штиль 0 20 км ясно +16.0 -1.0 31 +16 +32 опасность
простуды
1011.0 784.8
06 22.06 ЮЗ 4 20 км 3/3 1000 м
[Cu hum]
+18.9 -3.6 21 +19 +27 1007.6 784.2
09 22.06 ЮЗ 4 20 км 8/8 1000 м
[Cu med, cong]
+19.8 -1.8 23 +20 +21 1006.0 783.5
12 22.06 ЮЗ 4 20 км 6/3 1000 м
[Cu med, cong Ac lent Ci]
+18.9 -1.3 25 +19 +20 1006.1 783.4 +20.4
15 22.06 штиль 0 20 км 4/0
[Ac lent Ci]
+16.0 +0.7 35 +16 +16 1010.1 784.2
18 22.06 штиль 0 20 км 1/0
[Ci]
+11.3 +2.1 53 +11 +11 1014.9 784.5
21 22.06 штиль 0 20 км 4/0
[Ac lent Ci]
+8.8 +3.8 71 +8 +8 1016.3 783.9
00 23.06 штиль 0 20 км 3/0
[Ci]
+11.0 +3.1 58 +11 +13 1014.1 783.8 +7.1
03 23.06 штиль 0 20 км 8/3 1000 м
[Cu hum Ac lent Ci fib]
+16.2 +1.0 36 +16 +23 1008.1 782.7
06 23.06 ЮЗ 2
{12}
20 км 8/6 1000 м
[Cu med, cong Ac lent]
+14.7 +4.1 49 +15 +19 1010.9 783.8
09 23.06 ЮЗ 4 20 км 8/5 1000 м
[Cu med, cong Ac lent]
+17.0 +2.8 39 +17 +19 1007.1 782.5
12 23.06 ЮЗ 6 20 км 9/9 1000 м
[Cu Sc]
+12.5 +3.5 54 +10 +10 1012.7 783.7 +17.5
15 23.06 штиль 0 20 км 8/6 1000 м
[Sc Ac lent]
+10.9 +3.7 61 +11 +11 1014.9 784.3
18 23.06 штиль 0 20 км 5/0
[Ac lent Ci]
+9.4 +1.8 59 +9 +9 1015.7 783.9
21 23.06 штиль 0 20 км 3/0
[Ci fib]
+9.3 +0.3 53 +9 +9 1015.2 783.4
00 24.06 Ю 2 20 км 6/0
[Ac lent Ci fib]
+9.4 -4.6 37 +8 +10 1015.5 783.6 +6.1
03 24.06 ЮЗ 4 20 км ясно +11.8 -7.7 25 +10 +18 1013.0 783.5
06 24.06 Ю 4 20 км 4/4 1000 м
[Cu hum]
+12.6 -8.7 22 +11 +19 1011.9 783.1
09 24.06 Ю 4
{12}
20 км 5/4 1000 м
[Cu med, cong Ci fib]
+13.2 -8.7 21 +12 +17 1011.2 783.1
12 24.06 ЮЗ 4
{12}
20 км 3/0
[Ac lent]
+11.2 -7.6 26 +10 +11 1013.5 783.4 +14.1
15 24.06 З 2 20 км 1/0
[Ac lent]
+7.6 -4.9 41 +6 +6 1018.5 784.7
18 24.06 штиль 0 20 км ясно +4.0 -3.6 58 +4 +4 1021.9 784.6
21 24.06 ЮЗ 2 20 км 8/0
[Ac lent Ci fib]
+4.1 -5.8 48 +2 +2 1020.8 783.8
00 25.06 Ю 4 20 км 8/8 1000 м
[Cu Sc]
+6.3 -4.0 48 +3 +3 1014.2 784.0 +3.6
03 25.06 ЮВ 2 20 км 9/5 1000 м
[Cu med, cong Ac lent]
+8.7 -2.5 45 +7 +10 1011.5 784.0
06 25.06 Ю 4 20 км 9/5 1000 м
[Cu med, cong Ac lent Ci]
+11.1 -3.6 35 +9 +13 1008.4 783.3
09 25.06 СЗ 6
{14}
20 км 6/4 1000 м
[Cu med, cong Ac lent]
+12.3 -1.2 39 +10 +12 1010.5 781.9
12 25.06 Ю 6
{14}
20 км 8/5 1000 м
[Cu Sc Ac lent]
+9.9 -0.5 48 +7 +7 1012.2 781.6 +13.7
15 25.06 С 4
{14}
н/о дождь 10/0 600 м
[As op]
+1.9 +0.7 92 -3 -3 1021.7 782.9

 

Местоположение метеостанции Толбо (Монголия): широта 48.42 долгота 90.30 высота над уровнем моря 2101 м.

В архиве по умолчанию представлена погода в Толбо за последнюю неделю. Архивные данные за месяц целиком и за предыдущие месяцы, начиная с января 2011 года, Вы можете получить, выбрав интересующий диапазон дат из раскрывающегося списка и нажав кнопку "Ввод!".


*Определитесь, кто Вы:
робот инопланетянин человек

Внимание! Время в таблицах - всемирное. Для получения местного времени необходимо прибавить поправку, которая равна 8 ч.

Смотрите также архив погоды в соседних городах и на ближайших метеорологических станциях:

Погода в Углие (Монголия) (63 км)
Погода в Ховде (Монголия) (104 км)
Погода в Умнегове (Монголия) (124 км)
Погода в Ногооннууре (Монголия) (131 км)
Погода в Ташанте (Алтай, Россия) (165 км)
Погода в Фуюне (Синьцзян-Уйгурский автономный район, Китай) (170 км)
Погода в Жаргаланте (Монголия) (177 км)
Погода в Алтае (Синьцзян-Уйгурский автономный район, Китай) (182 км)
Погода в Улаангоме (Монголия) (201 км)
Погода в Завхане (Монголия) (211 км)

Пояснения к столбцам:

Ветер - указаны скорость ветра в м/с - средняя за 10 мин, порывы в срок и между сроками (в фигурных скобках) и направление, откуда дует ветер: С - северный, СВ - северо-восточный, В - восточный, ЮВ - юго-восточный, Ю - южный, ЮЗ - юго-западный, З - западный, СЗ - северо-западный.
Видимость - горизонтальная дальность видимости в метрах или километрах. При видимости от 1 до 10 км при отсутствии осадков обычно наблюдается дымка, при ухудшении видимости до 1 км и менее - туман. В сухую погоду видимость может ухудшаться дымом, пылью или мглою.
Явления - указаны атмосферные явления, наблюдавшиеся в срок или в последний час перед сроком; фигурными скобками обозначены явления, наблюдавшиеся между сроками (за 1-3 часа до срока); квадратными скобками обозначены град или гололедные отложения с указанием их диаметра в мм.
Облачность - указаны через наклонную черту общая и нижняя облачность в баллах и высота нижней границы облаков в метрах; квадратными скобками обозначены формы облаков: Ci - перистые, Cs - перисто-слоистые, Cc - перисто-кучевые, Ac - высококучевые, As - высокослоистые, Sc - слоисто-кучевые, Ns - слоисто-дождевые, Cu - кучевые, Cb - кучево-дождевые. Подробнее классификацию облаков см. в Атласе облаков (PDF).
T - Температура воздуха - температура, измеренная на высоте 2 м над землей.
Td - Температура точки росы - температура, при понижении до которой содержащийся в воздухе водяной пар достигнет насыщения.
f - Относительная влажность воздуха - влажноcть воздуха, измеренная на высоте 2 м над землей.
Te - Эффективная температура - температура, которую ощущает одетый по сезону человек в тени. Характеристика душности погоды. При расчете учитывается влияние влажности воздуха и скорости ветра на теплоощущения человека.
Tes - Эффективная температура на солнце - температура, которую ощущает человек, с поправкой на солнечный нагрев. Характеристика знойности погоды. Зависит от высоты солнца над горизонтом, облачности и скорости ветра. Ночью, в пасмурную погоду, а также при ветре 12 м/с и более поправка равна нулю.
P - Атмосферное давление - приведенное к уровню моря атмосферное давление.
Po - Атмосферное давление - измеренное на уровне метеостанции атмосферное давление.
Tmin - Минимальная температура - минимум температуры воздуха на высоте 2 м над землей.
Tmax - Максимальная температура - максимум температуры воздуха на высоте 2 м над землей.
R - Количество осадков - Количество выпавших осадков за период времени, мм. При наведении курсора мыши на число - период времени, за который выпало указанное количество осадков.
R24 - Количество осадков - Количество выпавших осадков за 24 часа, мм.
S - Снежный покров - Высота снежного покрова, см. При наведении курсора мыши на число - состояние снежного покрова и степень покрытия местности в баллах.